Station Historical Data
Daily Summary for September 3, 2017 Units:  English    Metric   Both
Next Day »
Daily Weekly Monthly Yearly Custom
  High: Low: Average:
Temperature: 95.6 °F 78.8 °F 85.4 °F
Dew Point: 58.3 °F 45.1 °F 50 °F
Humidity: 36% 21% 30%
Wind Speed: 11.0mph 0.0mph 1.6mph
Wind Gust: 19.0mph - -
Wind- - SSE
Pressure: 29.91 in 29.82 in -
Precipitation: 0.00 in    
Historical Graphs
 
 
Tabular Data for September 3, 2017
Time Temperature Dew Point Pressure Wind Wind Speed Wind Gust Humidity Rainfall Rate (Hourly) solar Conditions
00:04 82.9 °F 48.3 °F 29.85 in East 4.0 mph 11.0 mph 30% 0.00 in 0.00 W/m2
00:09 82.9 °F 48.3 °F 29.85 in East 5.0 mph 8.0 mph 30% 0.00 in 0.00 W/m2
00:14 82.8 °F 48.2 °F 29.85 in ESE 5.0 mph 9.0 mph 30% 0.00 in 0.00 W/m2
00:19 82.8 °F 48.2 °F 29.85 in ESE 8.0 mph 11.0 mph 30% 0.00 in 0.00 W/m2
00:24 82.7 °F 48.1 °F 29.85 in East 6.0 mph 11.0 mph 30% 0.00 in 0.00 W/m2
00:29 82.6 °F 48.1 °F 29.85 in East 4.0 mph 11.0 mph 30% 0.00 in 0.00 W/m2
00:34 82.5 °F 48.0 °F 29.85 in ESE 6.0 mph 14.0 mph 30% 0.00 in 0.00 W/m2
00:39 82.5 °F 48.0 °F 29.85 in ESE 8.0 mph 15.0 mph 30% 0.00 in 0.00 W/m2
00:44 82.4 °F 47.9 °F 29.85 in East 9.0 mph 11.0 mph 30% 0.00 in 0.00 W/m2
00:49 82.3 °F 47.8 °F 29.85 in East 5.0 mph 11.0 mph 30% 0.00 in 0.00 W/m2
00:54 82.2 °F 47.7 °F 29.85 in ESE 7.0 mph 13.0 mph 30% 0.00 in 0.00 W/m2
00:59 82.2 °F 47.7 °F 29.85 in ESE 5.0 mph 13.0 mph 30% 0.00 in 0.00 W/m2
01:04 82.1 °F 47.6 °F 29.86 in East 5.0 mph 9.0 mph 30% 0.00 in 0.00 W/m2
01:09 82.0 °F 47.5 °F 29.85 in ESE 1.0 mph 9.0 mph 30% 0.00 in 0.00 W/m2
01:14 82.0 °F 47.5 °F 29.86 in Calm   11.0 mph 30% 0.00 in 0.00 W/m2
01:19 81.9 °F 47.5 °F 29.85 in East 7.0 mph 12.0 mph 30% 0.00 in 0.00 W/m2
01:24 81.8 °F 47.4 °F 29.85 in East 5.0 mph 11.0 mph 30% 0.00 in 0.00 W/m2
01:29 81.7 °F 47.3 °F 29.85 in East 1.0 mph 12.0 mph 30% 0.00 in 0.00 W/m2
01:34 81.7 °F 47.3 °F 29.85 in East 4.0 mph 9.0 mph 30% 0.00 in 0.00 W/m2
01:39 81.6 °F 47.2 °F 29.85 in East 6.0 mph 9.0 mph 30% 0.00 in 0.00 W/m2
01:44 81.5 °F 47.1 °F 29.85 in East 1.0 mph 11.0 mph 30% 0.00 in 0.00 W/m2
01:49 81.5 °F 47.1 °F 29.86 in ESE 11.0 mph 14.0 mph 30% 0.00 in 0.00 W/m2
01:54 81.4 °F 47.0 °F 29.85 in East 2.0 mph 13.0 mph 30% 0.00 in 0.00 W/m2
01:59 81.4 °F 47.0 °F 29.85 in Calm   13.0 mph 30% 0.00 in 0.00 W/m2
02:00 81.4 °F 47.0 °F 29.86 in ESE 2.0 mph 13.0 mph 30% 0.00 in 0.00 W/m2
02:05 81.4 °F 47.0 °F 29.86 in ESE 4.0 mph 16.0 mph 30% 0.00 in 0.00 W/m2
02:10 81.4 °F 47.0 °F 29.86 in East 1.0 mph 14.0 mph 30% 0.00 in 0.00 W/m2
02:15 81.3 °F 46.9 °F 29.85 in ESE 2.0 mph 16.0 mph 30% 0.00 in 0.00 W/m2
02:20 81.3 °F 46.9 °F 29.86 in East 5.0 mph 12.0 mph 30% 0.00 in 0.00 W/m2
02:25 81.3 °F 46.9 °F 29.86 in Calm   16.0 mph 30% 0.00 in 0.00 W/m2
02:30 81.2 °F 46.8 °F 29.86 in ESE 1.0 mph 7.0 mph 30% 0.00 in 0.00 W/m2
02:35 81.2 °F 46.8 °F 29.86 in ESE 2.0 mph 7.0 mph 30% 0.00 in 0.00 W/m2
02:40 81.1 °F 46.8 °F 29.86 in ESE 1.0 mph 18.0 mph 30% 0.00 in 0.00 W/m2
02:45 81.1 °F 47.6 °F 29.86 in East 3.0 mph 19.0 mph 31% 0.00 in 0.00 W/m2
02:50 80.9 °F 47.5 °F 29.86 in East 6.0 mph 14.0 mph 31% 0.00 in 0.00 W/m2
02:55 80.9 °F 46.6 °F 29.85 in Calm   5.0 mph 30% 0.00 in 0.00 W/m2
03:00 80.8 °F 46.5 °F 29.86 in Calm   6.0 mph 30% 0.00 in 0.00 W/m2
03:05 80.8 °F 46.5 °F 29.86 in East 2.0 mph 5.0 mph 30% 0.00 in 0.00 W/m2
03:10 80.8 °F 46.5 °F 29.86 in ESE 1.0 mph 12.0 mph 30% 0.00 in 0.00 W/m2
03:16 80.8 °F 46.5 °F 29.86 in Calm   6.0 mph 30% 0.00 in 0.00 W/m2
03:21 80.7 °F 46.4 °F 29.86 in Calm   16.0 mph 30% 0.00 in 0.00 W/m2
03:25 80.7 °F 46.4 °F 29.86 in ESE 4.0 mph 7.0 mph 30% 0.00 in 0.00 W/m2
03:31 80.7 °F 46.4 °F 29.86 in East 7.0 mph 7.0 mph 30% 0.00 in 0.00 W/m2
03:36 80.7 °F 46.4 °F 29.86 in East 2.0 mph 6.0 mph 30% 0.00 in 0.00 W/m2
03:41 80.7 °F 46.4 °F 29.86 in East 6.0 mph 8.0 mph 30% 0.00 in 0.00 W/m2
03:46 80.7 °F 46.4 °F 29.85 in East 5.0 mph 8.0 mph 30% 0.00 in 0.00 W/m2
03:51 80.6 °F 46.3 °F 29.85 in Calm     30% 0.00 in 0.00 W/m2
03:56 80.6 °F 46.3 °F 29.86 in ESE 2.0 mph 8.0 mph 30% 0.00 in 0.00 W/m2
04:01 80.7 °F 46.4 °F 29.85 in Calm   2.0 mph 30% 0.00 in 0.00 W/m2
04:06 80.6 °F 46.3 °F 29.85 in Calm   12.0 mph 30% 0.00 in 0.00 W/m2
04:11 80.7 °F 46.4 °F 29.85 in ESE 1.0 mph 1.0 mph 30% 0.00 in 0.00 W/m2
04:16 80.6 °F 46.3 °F 29.85 in Calm     30% 0.00 in 0.00 W/m2
04:21 80.6 °F 46.3 °F 29.85 in East 8.0 mph 8.0 mph 30% 0.00 in 0.00 W/m2
04:26 80.5 °F 46.2 °F 29.85 in ESE 2.0 mph 11.0 mph 30% 0.00 in 0.00 W/m2
04:31 80.4 °F 46.2 °F 29.85 in Calm   8.0 mph 30% 0.00 in 0.00 W/m2
04:36 80.4 °F 46.2 °F 29.85 in ESE 1.0 mph 11.0 mph 30% 0.00 in 0.00 W/m2
04:41 80.3 °F 46.1 °F 29.85 in ESE 6.0 mph 6.0 mph 30% 0.00 in 0.00 W/m2
04:46 80.2 °F 46.0 °F 29.86 in Calm   2.0 mph 30% 0.00 in 0.00 W/m2
04:51 80.1 °F 45.9 °F 29.86 in Calm   11.0 mph 30% 0.00 in 0.00 W/m2
04:56 80.1 °F 45.9 °F 29.86 in East 1.0 mph 1.0 mph 30% 0.00 in 0.00 W/m2
05:01 80.0 °F 45.8 °F 29.86 in East 6.0 mph 14.0 mph 30% 0.00 in 0.00 W/m2
05:06 79.9 °F 45.7 °F 29.86 in Calm   9.0 mph 30% 0.00 in 0.00 W/m2
05:11 79.7 °F 45.6 °F 29.86 in ESE 5.0 mph 5.0 mph 30% 0.00 in 0.00 W/m2
05:16 79.6 °F 45.5 °F 29.86 in ESE 1.0 mph 13.0 mph 30% 0.00 in 0.00 W/m2
05:21 79.5 °F 45.4 °F 29.86 in East 1.0 mph 1.0 mph 30% 0.00 in 0.00 W/m2
05:26 79.5 °F 45.4 °F 29.86 in Calm   11.0 mph 30% 0.00 in 0.00 W/m2
05:31 79.4 °F 45.3 °F 29.86 in East 1.0 mph 5.0 mph 30% 0.00 in 0.00 W/m2
05:36 79.3 °F 45.2 °F 29.86 in Calm   2.0 mph 30% 0.00 in 0.00 W/m2
05:41 79.3 °F 45.2 °F 29.86 in ESE 6.0 mph 6.0 mph 30% 0.00 in 0.00 W/m2
05:46 79.2 °F 46.0 °F 29.86 in ESE 6.0 mph 11.0 mph 31% 0.00 in 0.00 W/m2
05:51 79.2 °F 46.0 °F 29.86 in East 5.0 mph 8.0 mph 31% 0.00 in 0.00 W/m2
05:56 79.1 °F 45.9 °F 29.86 in ESE 4.0 mph 5.0 mph 31% 0.00 in 0.00 W/m2
06:01 79.1 °F 45.9 °F 29.86 in Calm   5.0 mph 31% 0.00 in 0.00 W/m2
06:06 79.1 °F 45.9 °F 29.86 in Calm   5.0 mph 31% 0.00 in 0.00 W/m2
06:11 79.2 °F 45.1 °F 29.87 in ESE 1.0 mph 2.0 mph 30% 0.00 in 0.00 W/m2
06:16 79.2 °F 46.0 °F 29.87 in Calm   9.0 mph 31% 0.00 in 0.00 W/m2
06:21 79.2 °F 46.0 °F 29.87 in Calm   7.0 mph 31% 0.00 in 0.00 W/m2
06:26 79.2 °F 46.0 °F 29.87 in Calm     31% 0.00 in 0.00 W/m2
06:31 79.2 °F 46.0 °F 29.87 in East 1.0 mph 5.0 mph 31% 0.00 in 0.00 W/m2
06:36 79.2 °F 46.0 °F 29.87 in Calm     31% 0.00 in 5.00 W/m2
06:41 79.1 °F 45.9 °F 29.88 in Calm   5.0 mph 31% 0.00 in 7.00 W/m2
06:46 79.0 °F 45.8 °F 29.88 in ESE 6.0 mph 7.0 mph 31% 0.00 in 9.00 W/m2
06:51 79.0 °F 45.8 °F 29.88 in ESE 6.0 mph 6.0 mph 31% 0.00 in 12.00 W/m2
06:56 79.0 °F 45.8 °F 29.88 in ESE 9.0 mph 9.0 mph 31% 0.00 in 18.00 W/m2
07:01 79.0 °F 45.8 °F 29.88 in Calm   9.0 mph 31% 0.00 in 21.00 W/m2
07:06 79.0 °F 45.8 °F 29.88 in Calm   5.0 mph 31% 0.00 in 25.00 W/m2
07:11 79.0 °F 45.8 °F 29.88 in East 4.0 mph 5.0 mph 31% 0.00 in 35.00 W/m2
07:16 79.0 °F 45.8 °F 29.88 in ESE 4.0 mph 6.0 mph 31% 0.00 in 40.00 W/m2
07:21 78.9 °F 46.6 °F 29.88 in Calm   6.0 mph 32% 0.00 in 53.00 W/m2
07:26 78.9 °F 46.6 °F 29.88 in ESE 5.0 mph 8.0 mph 32% 0.00 in 54.00 W/m2
07:31 78.9 °F 46.6 °F 29.89 in ESE 1.0 mph 8.0 mph 32% 0.00 in 58.00 W/m2
07:36 78.9 °F 46.6 °F 29.89 in East 4.0 mph 9.0 mph 32% 0.00 in 76.00 W/m2
07:37 78.9 °F 46.6 °F 29.89 in East 2.0 mph 9.0 mph 32% 0.00 in 91.00 W/m2
07:42 78.8 °F 47.3 °F 29.89 in Calm   11.0 mph 33% 0.00 in 118.00 W/m2
07:46 78.8 °F 47.3 °F 29.89 in East 4.0 mph 8.0 mph 33% 0.00 in 137.00 W/m2
07:51 78.8 °F 47.3 °F 29.89 in ESE 5.0 mph 6.0 mph 33% 0.00 in 153.00 W/m2
07:56 78.8 °F 47.3 °F 29.89 in ESE 6.0 mph 11.0 mph 33% 0.00 in 169.00 W/m2
08:01 78.8 °F 48.1 °F 29.89 in Calm   6.0 mph 34% 0.00 in 185.00 W/m2
08:07 78.8 °F 48.1 °F 29.89 in Calm   5.0 mph 34% 0.00 in 199.00 W/m2
08:11 78.8 °F 48.1 °F 29.89 in Calm   7.0 mph 34% 0.00 in 218.00 W/m2
08:16 78.9 °F 48.2 °F 29.89 in Calm   8.0 mph 34% 0.00 in 230.00 W/m2
08:22 79.0 °F 48.3 °F 29.89 in ESE 5.0 mph 7.0 mph 34% 0.00 in 246.00 W/m2
08:27 79.1 °F 48.3 °F 29.89 in ESE 2.0 mph 11.0 mph 34% 0.00 in 265.00 W/m2
08:32 79.2 °F 48.4 °F 29.89 in Calm   11.0 mph 34% 0.00 in 163.00 W/m2
08:37 79.3 °F 48.5 °F 29.89 in ESE 2.0 mph 8.0 mph 34% 0.00 in 204.00 W/m2
08:42 79.5 °F 49.5 °F 29.89 in ESE 5.0 mph 11.0 mph 35% 0.00 in 243.00 W/m2
08:47 79.6 °F 49.6 °F 29.89 in ESE 6.0 mph 7.0 mph 35% 0.00 in 209.00 W/m2
08:52 79.7 °F 49.7 °F 29.89 in Calm   12.0 mph 35% 0.00 in 397.00 W/m2
08:57 79.8 °F 49.7 °F 29.89 in ESE 1.0 mph 6.0 mph 35% 0.00 in 403.00 W/m2
09:02 80.0 °F 49.1 °F 29.89 in ESE 5.0 mph 9.0 mph 34% 0.00 in 399.00 W/m2
09:07 80.1 °F 50.0 °F 29.89 in ESE 2.0 mph 5.0 mph 35% 0.00 in 392.00 W/m2
09:12 80.3 °F 50.2 °F 29.90 in Calm   6.0 mph 35% 0.00 in 404.00 W/m2
09:17 80.6 °F 50.5 °F 29.89 in ESE 5.0 mph 8.0 mph 35% 0.00 in 415.00 W/m2
09:22 80.8 °F 50.6 °F 29.90 in ESE 4.0 mph 8.0 mph 35% 0.00 in 427.00 W/m2
09:27 81.1 °F 50.9 °F 29.89 in ESE 1.0 mph 5.0 mph 35% 0.00 in 439.00 W/m2
09:32 81.4 °F 51.9 °F 29.90 in Calm   8.0 mph 36% 0.00 in 452.00 W/m2
09:37 81.7 °F 50.6 °F 29.90 in ESE 2.0 mph 8.0 mph 34% 0.00 in 469.00 W/m2
09:42 82.0 °F 50.1 °F 29.90 in ESE 7.0 mph 7.0 mph 33% 0.00 in 482.00 W/m2
09:47 82.4 °F 50.4 °F 29.90 in Calm   9.0 mph 33% 0.00 in 496.00 W/m2
09:52 82.7 °F 51.5 °F 29.91 in Calm   7.0 mph 34% 0.00 in 512.00 W/m2
09:57 83.0 °F 51.0 °F 29.91 in Calm   5.0 mph 33% 0.00 in 526.00 W/m2
10:02 83.2 °F 51.1 °F 29.90 in Calm   6.0 mph 33% 0.00 in 541.00 W/m2
10:07 83.6 °F 50.7 °F 29.91 in Calm   1.0 mph 32% 0.00 in 557.00 W/m2
10:12 83.9 °F 51.8 °F 29.91 in SE 1.0 mph 4.0 mph 33% 0.00 in 568.00 W/m2
10:17 84.2 °F 52.8 °F 29.91 in Calm   4.0 mph 34% 0.00 in 580.00 W/m2
10:22 84.5 °F 51.4 °F 29.91 in Calm   5.0 mph 32% 0.00 in 589.00 W/m2
10:27 84.8 °F 51.7 °F 29.91 in Calm   2.0 mph 32% 0.00 in 599.00 W/m2
10:32 85.2 °F 52.9 °F 29.91 in Calm     33% 0.00 in 615.00 W/m2
10:37 85.6 °F 54.8 °F 29.91 in Calm     35% 0.00 in 635.00 W/m2
10:42 86.0 °F 55.2 °F 29.91 in Calm     35% 0.00 in 647.00 W/m2
10:47 86.4 °F 54.7 °F 29.91 in Calm   2.0 mph 34% 0.00 in 663.00 W/m2
10:52 87.0 °F 52.7 °F 29.91 in Calm     31% 0.00 in 671.00 W/m2
10:57 87.7 °F 52.5 °F 29.91 in SW 4.0 mph 6.0 mph 30% 0.00 in 682.00 W/m2
11:02 88.2 °F 53.8 °F 29.91 in Calm   3.0 mph 31% 0.00 in 693.00 W/m2
11:08 88.5 °F 52.2 °F 29.91 in Calm   1.0 mph 29% 0.00 in 700.00 W/m2
11:13 88.8 °F 51.5 °F 29.91 in South 3.0 mph 5.0 mph 28% 0.00 in 707.00 W/m2
11:18 89.1 °F 49.8 °F 29.91 in SSW 3.0 mph 6.0 mph 26% 0.00 in 717.00 W/m2
11:23 89.5 °F 51.1 °F 29.91 in SSW 1.0 mph 2.0 mph 27% 0.00 in 728.00 W/m2
11:28 89.8 °F 52.4 °F 29.91 in SW 2.0 mph 6.0 mph 28% 0.00 in 737.00 W/m2
11:33 90.1 °F 52.6 °F 29.91 in Calm   5.0 mph 28% 0.00 in 742.00 W/m2
11:38 90.5 °F 53.0 °F 29.91 in Calm   6.0 mph 28% 0.00 in 749.00 W/m2
11:43 90.6 °F 52.1 °F 29.91 in Calm     27% 0.00 in 758.00 W/m2
11:48 90.9 °F 52.3 °F 29.90 in Calm   4.0 mph 27% 0.00 in 761.00 W/m2
11:53 91.2 °F 52.6 °F 29.90 in Calm   3.0 mph 27% 0.00 in 772.00 W/m2
11:58 91.4 °F 51.7 °F 29.90 in West 1.0 mph 4.0 mph 26% 0.00 in 777.00 W/m2
12:03 91.6 °F 51.9 °F 29.90 in Calm   4.0 mph 26% 0.00 in 780.00 W/m2
12:08 91.8 °F 51.0 °F 29.90 in Calm     25% 0.00 in 786.00 W/m2
12:13 92.0 °F 52.2 °F 29.90 in West 2.0 mph 6.0 mph 26% 0.00 in 788.00 W/m2
12:18 92.2 °F 50.2 °F 29.91 in WSW 2.0 mph 4.0 mph 24% 0.00 in 793.00 W/m2
12:23 92.4 °F 50.4 °F 29.91 in Calm   3.0 mph 24% 0.00 in 793.00 W/m2
12:24 92.4 °F 50.4 °F 29.90 in Calm   3.0 mph 24% 0.00 in 793.00 W/m2
12:29 92.6 °F 50.6 °F 29.90 in Calm     24% 0.00 in 796.00 W/m2
12:34 92.8 °F 50.7 °F 29.90 in Calm   5.0 mph 24% 0.00 in 800.00 W/m2
12:39 93.1 °F 52.1 °F 29.90 in Calm   4.0 mph 25% 0.00 in 798.00 W/m2
12:44 93.3 °F 51.2 °F 29.90 in WSW 4.0 mph 7.0 mph 24% 0.00 in 802.00 W/m2
12:49 93.7 °F 50.3 °F 29.90 in West 1.0 mph 7.0 mph 23% 0.00 in 802.00 W/m2
12:54 93.9 °F 51.7 °F 29.89 in West 2.0 mph 4.0 mph 24% 0.00 in 807.00 W/m2
12:59 93.8 °F 50.4 °F 29.89 in WSW 2.0 mph 7.0 mph 23% 0.00 in 809.00 W/m2
13:04 93.9 °F 51.7 °F 29.89 in WNW 4.0 mph 7.0 mph 24% 0.00 in 805.00 W/m2
13:09 94.1 °F 51.8 °F 29.89 in Calm   5.0 mph 24% 0.00 in 826.00 W/m2
13:14 94.3 °F 50.8 °F 29.89 in WNW 1.0 mph 6.0 mph 23% 0.00 in 854.00 W/m2
13:19 94.2 °F 50.8 °F 29.89 in Calm   6.0 mph 23% 0.00 in 262.00 W/m2
13:24 94.0 °F 51.8 °F 29.89 in Calm   4.0 mph 24% 0.00 in 851.00 W/m2
13:29 93.7 °F 51.5 °F 29.88 in WNW 3.0 mph 7.0 mph 24% 0.00 in 269.00 W/m2
13:34 93.4 °F 52.3 °F 29.88 in Calm   5.0 mph 25% 0.00 in 343.00 W/m2
13:39 93.1 °F 52.1 °F 29.88 in WNW 2.0 mph 5.0 mph 25% 0.00 in 246.00 W/m2
13:44 92.8 °F 51.8 °F 29.88 in Calm   4.0 mph 25% 0.00 in 251.00 W/m2
13:49 92.4 °F 53.6 °F 29.88 in WNW 4.0 mph 4.0 mph 27% 0.00 in 844.00 W/m2
13:54 92.4 °F 52.6 °F 29.88 in West 1.0 mph 5.0 mph 26% 0.00 in 810.00 W/m2
13:59 92.8 °F 52.9 °F 29.87 in WNW 3.0 mph 5.0 mph 26% 0.00 in 791.00 W/m2
14:04 93.3 °F 51.2 °F 29.87 in WNW 1.0 mph 5.0 mph 24% 0.00 in 782.00 W/m2
14:09 93.6 °F 51.4 °F 29.87 in Calm   9.0 mph 24% 0.00 in 779.00 W/m2
14:14 93.9 °F 51.7 °F 29.87 in WNW 3.0 mph 8.0 mph 24% 0.00 in 768.00 W/m2
14:19 94.2 °F 50.8 °F 29.87 in WNW 1.0 mph 1.0 mph 23% 0.00 in 758.00 W/m2
14:24 94.4 °F 52.1 °F 29.87 in NW 3.0 mph 8.0 mph 24% 0.00 in 756.00 W/m2
14:29 94.6 °F 49.9 °F 29.87 in West 3.0 mph 6.0 mph 22% 0.00 in 789.00 W/m2
14:34 94.9 °F 50.2 °F 29.87 in Calm   6.0 mph 22% 0.00 in 770.00 W/m2
14:39 95.1 °F 50.3 °F 29.87 in NW 5.0 mph 8.0 mph 22% 0.00 in 715.00 W/m2
14:45 95.1 °F 50.3 °F 29.87 in Calm   8.0 mph 22% 0.00 in 712.00 W/m2
14:50 95.1 °F 49.1 °F 29.87 in NW 6.0 mph 8.0 mph 21% 0.00 in 701.00 W/m2
14:55 94.9 °F 48.9 °F 29.87 in NW 1.0 mph 7.0 mph 21% 0.00 in 689.00 W/m2
15:00 94.8 °F 48.8 °F 29.87 in WNW 1.0 mph 8.0 mph 21% 0.00 in 677.00 W/m2
15:05 94.9 °F 48.9 °F 29.87 in West 2.0 mph 9.0 mph 21% 0.00 in 677.00 W/m2
15:10 95.1 °F 49.1 °F 29.87 in Calm   7.0 mph 21% 0.00 in 659.00 W/m2
15:15 95.3 °F 49.2 °F 29.87 in Calm   3.0 mph 21% 0.00 in 657.00 W/m2
15:20 95.3 °F 50.5 °F 29.87 in Calm   10.0 mph 22% 0.00 in 652.00 W/m2
15:25 95.5 °F 49.4 °F 29.87 in Calm   4.0 mph 21% 0.00 in 640.00 W/m2
15:30 95.6 °F 50.7 °F 29.87 in Calm   6.0 mph 22% 0.00 in 626.00 W/m2
15:35 95.5 °F 49.4 °F 29.87 in West 2.0 mph 7.0 mph 21% 0.00 in 621.00 W/m2
15:40 95.5 °F 50.7 °F 29.87 in Calm   10.0 mph 22% 0.00 in 599.00 W/m2
15:45 95.3 °F 49.2 °F 29.87 in Calm   3.0 mph 21% 0.00 in 584.00 W/m2
15:50 95.0 °F 50.2 °F 29.87 in Calm   1.0 mph 22% 0.00 in 566.00 W/m2
15:55 94.9 °F 50.2 °F 29.87 in SSW 1.0 mph 5.0 mph 22% 0.00 in 552.00 W/m2
16:00 94.9 °F 50.2 °F 29.87 in Calm   4.0 mph 22% 0.00 in 545.00 W/m2
16:05 94.9 °F 51.3 °F 29.87 in Calm   5.0 mph 23% 0.00 in 533.00 W/m2
16:10 94.9 °F 48.9 °F 29.86 in West 2.0 mph 3.0 mph 21% 0.00 in 527.00 W/m2
16:15 94.8 °F 50.1 °F 29.86 in Calm   4.0 mph 22% 0.00 in 517.00 W/m2
16:20 94.7 °F 48.7 °F 29.86 in Calm   1.0 mph 21% 0.00 in 522.00 W/m2
16:25 94.7 °F 50.0 °F 29.86 in Calm   5.0 mph 22% 0.00 in 520.00 W/m2
16:30 94.7 °F 50.0 °F 29.86 in Calm   4.0 mph 22% 0.00 in 506.00 W/m2
16:35 94.7 °F 50.0 °F 29.86 in Calm   2.0 mph 22% 0.00 in 497.00 W/m2
16:40 94.6 °F 49.9 °F 29.85 in Calm   6.0 mph 22% 0.00 in 468.00 W/m2
16:45 94.5 °F 49.8 °F 29.85 in Calm   2.0 mph 22% 0.00 in 482.00 W/m2
16:50 94.4 °F 48.5 °F 29.85 in Calm   4.0 mph 21% 0.00 in 496.00 W/m2
16:55 94.4 °F 50.9 °F 29.85 in WNW 2.0 mph 2.0 mph 23% 0.00 in 483.00 W/m2
17:00 94.5 °F 49.8 °F 29.84 in Calm   7.0 mph 22% 0.00 in 482.00 W/m2
17:05 94.5 °F 51.0 °F 29.84 in Calm     23% 0.00 in 448.00 W/m2
17:10 94.6 °F 49.9 °F 29.84 in Calm     22% 0.00 in 455.00 W/m2
17:15 94.7 °F 52.3 °F 29.84 in NNW 1.0 mph 3.0 mph 24% 0.00 in 431.00 W/m2
17:20 94.5 °F 52.2 °F 29.84 in Calm   4.0 mph 24% 0.00 in 183.00 W/m2
17:25 94.3 °F 52.0 °F 29.83 in Calm   4.0 mph 24% 0.00 in 151.00 W/m2
17:30 94.1 °F 51.8 °F 29.83 in Calm   2.0 mph 24% 0.00 in 146.00 W/m2
17:35 93.8 °F 53.8 °F 29.84 in Calm     26% 0.00 in 144.00 W/m2
17:40 93.6 °F 54.6 °F 29.83 in Calm     27% 0.00 in 135.00 W/m2
17:45 93.4 °F 53.4 °F 29.83 in Calm     26% 0.00 in 127.00 W/m2
17:50 92.9 °F 55.0 °F 29.83 in Calm     28% 0.00 in 105.00 W/m2
17:55 92.3 °F 56.4 °F 29.83 in Calm     30% 0.00 in 104.00 W/m2
17:57 92.2 °F 56.3 °F 29.83 in Calm     30% 0.00 in 98.00 W/m2
18:02 92.0 °F 56.2 °F 29.83 in Calm     30% 0.00 in 167.00 W/m2
18:07 91.4 °F 58.3 °F 29.83 in Calm     33% 0.00 in 135.00 W/m2
18:12 90.7 °F 57.7 °F 29.83 in Calm     33% 0.00 in 146.00 W/m2
18:17 90.0 °F 57.9 °F 29.83 in Calm     34% 0.00 in 97.00 W/m2
18:22 89.8 °F 57.7 °F 29.83 in Calm     34% 0.00 in 90.00 W/m2
18:27 89.6 °F 57.5 °F 29.83 in Calm     34% 0.00 in 81.00 W/m2
18:32 89.5 °F 58.3 °F 29.83 in Calm     35% 0.00 in 67.00 W/m2
18:37 89.0 °F 57.8 °F 29.83 in Calm     35% 0.00 in 58.00 W/m2
18:42 88.4 °F 57.3 °F 29.83 in Calm     35% 0.00 in 51.00 W/m2
18:47 87.9 °F 56.9 °F 29.83 in Calm     35% 0.00 in 42.00 W/m2
18:52 87.6 °F 56.6 °F 29.83 in NW 4.0 mph 5.0 mph 35% 0.00 in 39.00 W/m2
18:57 87.4 °F 54.8 °F 29.83 in NW 3.0 mph 4.0 mph 33% 0.00 in 28.00 W/m2
19:02 87.1 °F 54.5 °F 29.82 in Calm     33% 0.00 in 26.00 W/m2
19:07 86.9 °F 53.5 °F 29.83 in Calm     32% 0.00 in 21.00 W/m2
19:12 86.9 °F 53.5 °F 29.83 in Calm     32% 0.00 in 16.00 W/m2
19:17 86.8 °F 54.3 °F 29.83 in Calm     33% 0.00 in 12.00 W/m2
19:22 86.8 °F 54.3 °F 29.82 in Calm     33% 0.00 in 9.00 W/m2
19:27 86.7 °F 54.2 °F 29.83 in Calm     33% 0.00 in 5.00 W/m2
19:32 86.6 °F 54.1 °F 29.83 in Calm     33% 0.00 in 0.00 W/m2
19:37 86.4 °F 53.9 °F 29.82 in Calm     33% 0.00 in 0.00 W/m2
19:42 86.2 °F 53.8 °F 29.82 in Calm     33% 0.00 in 0.00 W/m2
19:47 85.9 °F 52.7 °F 29.82 in Calm     32% 0.00 in 0.00 W/m2
19:52 85.4 °F 53.0 °F 29.82 in Calm     33% 0.00 in 0.00 W/m2
19:57 84.9 °F 51.8 °F 29.82 in Calm     32% 0.00 in 0.00 W/m2
20:02 84.7 °F 52.4 °F 29.82 in Calm   4.0 mph 33% 0.00 in 0.00 W/m2
20:07 84.6 °F 52.4 °F 29.82 in Calm   4.0 mph 33% 0.00 in 0.00 W/m2
20:17 83.9 °F 51.8 °F 29.82 in NNW 1.0 mph 3.0 mph 33% 0.00 in 0.00 W/m2
20:19 83.8 °F 51.7 °F 29.83 in Calm   3.0 mph 33% 0.00 in 0.00 W/m2
20:22 83.8 °F 51.7 °F 29.83 in Calm     33% 0.00 in 0.00 W/m2
20:23 83.8 °F 51.7 °F 29.83 in Calm     33% 0.00 in 0.00 W/m2
20:25 83.7 °F 52.4 °F 29.83 in Calm   1.0 mph 34% 0.00 in 0.00 W/m2
20:30 83.7 °F 52.4 °F 29.83 in Calm   1.0 mph 34% 0.00 in 0.00 W/m2
20:35 83.6 °F 52.3 °F 29.83 in Calm     34% 0.00 in 0.00 W/m2
20:40 83.5 °F 52.2 °F 29.83 in Calm     34% 0.00 in 0.00 W/m2
20:45 83.5 °F 52.2 °F 29.83 in Calm   1.0 mph 34% 0.00 in 0.00 W/m2
20:50 83.4 °F 52.1 °F 29.83 in Calm     34% 0.00 in 0.00 W/m2
20:55 83.1 °F 51.9 °F 29.83 in Calm   2.0 mph 34% 0.00 in 0.00 W/m2
21:00 83.0 °F 52.6 °F 29.83 in Calm     35% 0.00 in 0.00 W/m2
21:05 83.0 °F 52.6 °F 29.83 in Calm   1.0 mph 35% 0.00 in 0.00 W/m2
21:10 82.9 °F 52.5 °F 29.83 in Calm     35% 0.00 in 0.00 W/m2
21:15 82.8 °F 52.4 °F 29.84 in Calm   3.0 mph 35% 0.00 in 0.00 W/m2
21:20 82.7 °F 52.3 °F 29.84 in Calm   3.0 mph 35% 0.00 in 0.00 W/m2
21:25 82.7 °F 52.3 °F 29.83 in Calm   4.0 mph 35% 0.00 in 0.00 W/m2
21:30 82.6 °F 52.2 °F 29.84 in Calm   4.0 mph 35% 0.00 in 0.00 W/m2
21:35 82.6 °F 52.2 °F 29.84 in NNW 2.0 mph 3.0 mph 35% 0.00 in 0.00 W/m2
21:40 82.6 °F 52.2 °F 29.84 in Calm   3.0 mph 35% 0.00 in 0.00 W/m2
21:45 82.6 °F 52.2 °F 29.84 in Calm   1.0 mph 35% 0.00 in 0.00 W/m2
21:50 82.6 °F 52.2 °F 29.84 in NNW 3.0 mph 4.0 mph 35% 0.00 in 0.00 W/m2
21:56 82.6 °F 52.2 °F 29.84 in Calm   3.0 mph 35% 0.00 in 0.00 W/m2
22:01 82.6 °F 52.2 °F 29.84 in Calm     35% 0.00 in 0.00 W/m2
22:06 82.6 °F 52.2 °F 29.85 in Calm   3.0 mph 35% 0.00 in 0.00 W/m2
22:11 82.6 °F 52.2 °F 29.85 in North 1.0 mph 5.0 mph 35% 0.00 in 0.00 W/m2
22:12 82.6 °F 52.2 °F 29.85 in North 3.0 mph 3.0 mph 35% 0.00 in 0.00 W/m2
22:17 82.5 °F 52.1 °F 29.84 in NNE 4.0 mph 6.0 mph 35% 0.00 in 0.00 W/m2
22:22 82.5 °F 52.1 °F 29.85 in NNE 2.0 mph 6.0 mph 35% 0.00 in 0.00 W/m2
22:27 82.4 °F 52.0 °F 29.85 in NNE 3.0 mph 5.0 mph 35% 0.00 in 0.00 W/m2
22:32 82.3 °F 51.9 °F 29.85 in Calm   6.0 mph 35% 0.00 in 0.00 W/m2
22:38 82.3 °F 51.2 °F 29.85 in NE 2.0 mph 8.0 mph 34% 0.00 in 0.00 W/m2
22:43 82.2 °F 51.1 °F 29.85 in East 7.0 mph 11.0 mph 34% 0.00 in 0.00 W/m2
22:48 82.2 °F 51.1 °F 29.85 in Calm   12.0 mph 34% 0.00 in 0.00 W/m2
22:53 82.2 °F 51.1 °F 29.85 in ESE 1.0 mph 13.0 mph 34% 0.00 in 0.00 W/m2
22:58 82.2 °F 51.1 °F 29.85 in ESE 2.0 mph 8.0 mph 34% 0.00 in 0.00 W/m2
23:03 82.2 °F 51.1 °F 29.85 in East 6.0 mph 6.0 mph 34% 0.00 in 0.00 W/m2
23:08 82.1 °F 51.0 °F 29.85 in ESE 4.0 mph 6.0 mph 34% 0.00 in 0.00 W/m2
23:13 82.1 °F 51.0 °F 29.85 in East 1.0 mph 9.0 mph 34% 0.00 in 0.00 W/m2
23:18 82.0 °F 50.1 °F 29.84 in Calm   7.0 mph 33% 0.00 in 0.00 W/m2
23:23 82.0 °F 50.9 °F 29.84 in Calm   4.0 mph 34% 0.00 in 0.00 W/m2
23:28 81.9 °F 50.8 °F 29.85 in Calm   11.0 mph 34% 0.00 in 0.00 W/m2
23:33 81.9 °F 50.0 °F 29.84 in Calm   8.0 mph 33% 0.00 in 0.00 W/m2
23:38 81.8 °F 49.9 °F 29.84 in ESE 4.0 mph 7.0 mph 33% 0.00 in 0.00 W/m2
23:43 81.8 °F 49.9 °F 29.84 in ESE 6.0 mph 9.0 mph 33% 0.00 in 0.00 W/m2
23:48 81.6 °F 50.5 °F 29.84 in East 6.0 mph 9.0 mph 34% 0.00 in 0.00 W/m2
23:53 81.5 °F 50.5 °F 29.84 in Calm   8.0 mph 34% 0.00 in 0.00 W/m2
23:58 81.4 °F 50.4 °F 29.84 in East 5.0 mph 7.0 mph 34% 0.00 in 0.00 W/m2
Foresthill Weather
 WU-history PHP script courtesy of   Juneau County Weather.
powered by Cumulus v1.9.3 (1059)
Ambient Weather VWS v14.00
Top Contact Website Map Copyright © 2007 - 2018 Foresthillweather.com Never base important decisions on this or any weather information obtained from the Internet